Location: ActonStarParty
(42.4766°N, 71.4538°W)
Time: 09:26:25
(UTC-04:00)

Amateur Radio Satellites - All Passes

Search period start: 16 September 2014 08:56
Search period end: 17 September 2014 08:56
Location: ActonStarParty, 42.4766°N, 71.4538°W

Satellite Date Start Highest point End Downlink Frequencies (MHz)
Time Altitude Azimuth
SO-67 16 Sep 09:12:53 09:13:59 11° 295° (WNW) 09:15:06 435.3500 MHz FM
Oscar 11 16 Sep 09:30:46 09:33:26 16° 91° (E) 09:36:05 145.825 FM, Beacon 2401.500 USB
HO-68 16 Sep 09:40:38 09:47:44 60° 102° (ESE) 09:54:48 435.675 MHz FM
UKube-1 16 Sep 09:42:44 09:46:31 28° 96° (E) 09:50:17 145.840 MHz, 145.915 MHz
ISS 16 Sep 09:46:09 09:49:23 45° 28° (NNE) 09:52:36 145.800 FM
SO-50 16 Sep 09:49:31 09:51:38 13° 252° (WSW) 09:53:45 436.795 FM
MaSat-1 16 Sep 09:54:31 09:59:28 54° 300° (WNW) 10:04:22 437.345 MHz
UOSAT-12 16 Sep 10:06:07 10:10:52 80° 238° (WSW) 10:15:31 437.025 FM, 437.400 FM
RS-15 16 Sep 10:11:35 10:19:42 23° 6° (N) 10:27:55 29.354 - 29.394 USB, Beacon 29.352 USB
FUNcube-1 16 Sep 10:45:05 10:49:30 42° 98° (E) 10:53:52 145.950 - 145.970 MHz USB
Oscar 11 16 Sep 11:05:41 11:09:53 47° 288° (WNW) 11:14:02 145.825 FM, Beacon 2401.500 USB
UKube-1 16 Sep 11:18:59 11:22:39 27° 293° (WNW) 11:26:18 145.840 MHz, 145.915 MHz
ISS 16 Sep 11:23:11 11:25:57 24° 225° (SW) 11:28:41 145.800 FM
HO-68 16 Sep 11:29:03 11:35:00 29° 301° (WNW) 11:40:56 435.675 MHz FM
MaSat-1 16 Sep 11:37:05 11:37:20 10° 319° (NW) 11:37:34 437.345 MHz
PCSat 16 Sep 11:56:52 12:00:29 18° 105° (ESE) 12:04:06 145.825 MHz
Oscar 16 16 Sep 12:12:12 12:15:49 19° 62° (ENE) 12:19:26 437.025 USB, Beacon 2401.1428
FUNcube-1 16 Sep 12:22:08 12:25:36 21° 295° (WNW) 12:29:02 145.950 - 145.970 MHz USB
RS-15 16 Sep 12:25:48 12:36:07 42° 39° (NE) 12:46:44 29.354 - 29.394 USB, Beacon 29.352 USB
ITAMSAT 1 16 Sep 12:48:16 12:51:37 18° 61° (ENE) 12:54:59 435.822 SSB
Uribyol 2 16 Sep 12:52:58 12:56:42 21° 62° (ENE) 13:00:27 436.500 FM
AO-Echo 16 Sep 12:54:53 12:58:19 20° 64° (ENE) 13:01:43 ?
JAS-1B 16 Sep 13:09:40 13:17:45 44° 67° (ENE) 13:24:39 435.800 - 435.900 CW/SSB
Sapphire 16 Sep 13:10:29 13:15:51 73° 117° (ESE) 13:21:17 437.095 MHz 1200 baud AX-25 AFSK
Oscar 19 16 Sep 13:11:23 13:16:29 62° 72° (ENE) 13:21:38 437.125 CW, 437.150 USB
AO-27 16 Sep 13:20:44 13:25:21 34° 67° (ENE) 13:29:59 436.795 MHz FM
PCSat 16 Sep 13:37:59 13:43:20 64° 303° (WNW) 13:48:45 145.825 MHz
Oscar 16 16 Sep 13:49:36 13:54:42 58° 259° (W) 13:59:51 437.025 USB, Beacon 2401.1428
Gurwin Techsat 1B 16 Sep 13:52:58 13:57:37 32° 67° (ENE) 14:02:17 435.225 FM
AO-7 16 Sep 13:54:58 13:59:43 17° 46° (NE) 14:04:26 29.400 - 29.500 MHz
ITAMSAT 1 16 Sep 14:25:29 14:30:36 64° 258° (WSW) 14:35:45 435.822 SSB
Uribyol 2 16 Sep 14:30:44 14:35:46 54° 260° (W) 14:40:51 436.500 FM
TMSAT-1 16 Sep 14:31:48 14:36:55 52° 71° (ENE) 14:42:03 436.925 FM
AO-Echo 16 Sep 14:32:12 14:36:47 46° 261° (W) 14:41:20 ?
RS-15 16 Sep 14:38:15 14:49:14 69° 243° (WSW) 15:00:41 29.354 - 29.394 USB, Beacon 29.352 USB
Oscar 19 16 Sep 14:52:58 14:56:14 17° 269° (W) 14:59:32 437.125 CW, 437.150 USB
Sapphire 16 Sep 14:55:50 14:59:51 21° 317° (NW) 15:03:54 437.095 MHz 1200 baud AX-25 AFSK
JAS-1B 16 Sep 14:59:54 15:08:16 43° 261° (W) 15:15:26 435.800 - 435.900 CW/SSB
AO-27 16 Sep 15:00:20 15:04:51 30° 264° (W) 15:09:25 436.795 MHz FM
PCSat 16 Sep 15:25:13 15:27:52 14° 324° (NW) 15:30:32 145.825 MHz
Gurwin Techsat 1B 16 Sep 15:32:44 15:37:30 34° 264° (W) 15:42:19 435.225 FM
Uosat F 16 Sep 15:38:50 15:43:28 40° 69° (ENE) 15:48:08 435.120 FM
AO-7 16 Sep 15:42:48 15:51:00 68° 67° (ENE) 15:59:14 29.400 - 29.500 MHz
JAS-2 16 Sep 16:10:16 16:12:08 12° 58° (ENE) 16:13:58 435.800 - 435.900 CW/SSB, 435.910 FM
TMSAT-1 16 Sep 16:13:16 16:17:08 20° 268° (W) 16:21:00 436.925 FM
Oscar 10/S400 16 Sep 16:17:03 16:33:40 35° 149° (SSE) 16:58:45 145.825 - 145.975 CW/USB, Beacon 145.810 USB
OPAL 16 Sep 16:28:07 16:31:24 17° 93° (E) 16:34:39 ?
RS-15 16 Sep 16:54:10 16:59:28 15° 264° (W) 17:04:51 29.354 - 29.394 USB, Beacon 29.352 USB
Uosat F 16 Sep 17:18:22 17:22:23 24° 266° (W) 17:26:25 435.120 FM
Hamsat 16 Sep 17:27:48 17:32:00 49° 73° (ENE) 17:36:13 145.90 MHz
Saudisat 1A 16 Sep 17:33:01 17:36:51 30° 115° (ESE) 17:40:42 436.775 MHz
AO-7 16 Sep 17:37:35 17:44:21 27° 266° (W) 17:51:10 29.400 - 29.500 MHz
JAS-2 16 Sep 17:51:09 17:56:31 89° 256° (WSW) 18:01:43 435.800 - 435.900 CW/SSB, 435.910 FM
OPAL 16 Sep 18:05:34 18:10:42 62° 290° (WNW) 18:15:45 ?
MaSat-1 16 Sep 18:11:08 18:14:55 36° 56° (NE) 18:18:10 437.345 MHz
SO-67 16 Sep 18:12:25 18:14:46 17° 68° (ENE) 18:17:07 435.3500 MHz FM
STRAND 1 16 Sep 18:41:29 18:45:25 22° 93° (E) 18:49:21 ?
Hamsat 16 Sep 19:05:37 19:08:14 16° 269° (W) 19:10:51 145.90 MHz
Saudisat 1A 16 Sep 19:12:24 19:16:22 32° 313° (NW) 19:20:22 436.775 MHz
SO-67 16 Sep 19:44:38 19:47:37 27° 264° (W) 19:50:36 435.3500 MHz FM
KITSAT 1 16 Sep 19:47:52 19:55:39 55° 113° (ESE) 20:03:28 435.175 FM
MaSat-1 16 Sep 19:48:59 19:51:13 15° 259° (WSW) 19:53:17 437.345 MHz
AO-40 16 Sep 19:58:40 01:36:35 39° 183° (S) 07:59:31 Beacon 2401.320
HO-68 16 Sep 20:09:45 20:16:29 48° 65° (ENE) 20:23:16 435.675 MHz FM
Sapphire 16 Sep 20:16:02 20:18:48 14° 36° (NE) 20:21:33 437.095 MHz 1200 baud AX-25 AFSK
STRAND 1 16 Sep 20:19:56 20:24:49 46° 290° (WNW) 20:29:42 ?
Oscar 11 16 Sep 20:27:05 20:29:32 15° 63° (ENE) 20:32:00 145.825 FM, Beacon 2401.500 USB
UKube-1 16 Sep 20:39:01 20:42:42 28° 67° (ENE) 20:46:24 145.840 MHz, 145.915 MHz
PCSat 16 Sep 20:42:40 20:46:46 21° 43° (NE) 20:50:51 145.825 MHz
FUNcube-1 16 Sep 21:42:11 21:46:11 36° 70° (ENE) 21:50:17 145.950 - 145.970 MHz USB
KITSAT 1 16 Sep 21:43:48 21:51:18 40° 314° (NW) 21:58:51 435.175 FM
Sapphire 16 Sep 21:57:52 22:03:18 66° 58° (ENE) 22:08:41 437.095 MHz 1200 baud AX-25 AFSK
HO-68 16 Sep 21:57:59 22:04:20 34° 264° (W) 22:10:44 435.675 MHz FM
Oscar 11 16 Sep 22:00:58 22:05:15 56° 260° (W) 22:09:35 145.825 FM, Beacon 2401.500 USB
UKube-1 16 Sep 22:15:09 22:18:50 27° 264° (W) 22:22:33 145.840 MHz, 145.915 MHz
SO-50 16 Sep 22:23:35 22:26:59 22° 112° (ESE) 22:30:28 436.795 FM
PCSat 16 Sep 22:25:19 22:30:44 71° 243° (WSW) 22:36:07 145.825 MHz
FUNcube-1 16 Sep 23:19:19 23:22:40 22° 267° (W) 23:26:07 145.950 - 145.970 MHz USB
Sapphire 16 Sep 23:42:36 23:46:09 18° 255° (WSW) 23:49:42 437.095 MHz 1200 baud AX-25 AFSK
KITSAT 1 16 Sep 23:44:56 23:49:21 15° 341° (NNW) 23:53:48 435.175 FM
SO-50 17 Sep 00:02:56 00:07:14 45° 310° (NW) 00:11:41 436.795 FM
UOSAT-12 17 Sep 00:18:26 00:22:16 26° 113° (ESE) 00:26:11 437.025 FM, 437.400 FM
Oscar 19 17 Sep 01:23:15 01:27:06 21° 92° (E) 01:30:54 437.125 CW, 437.150 USB
AO-27 17 Sep 01:35:34 01:36:51 11° 88° (E) 01:38:07 436.795 MHz FM
KITSAT 1 17 Sep 01:45:08 01:48:58 14° 13° (NNE) 01:52:47 435.175 FM
UOSAT-12 17 Sep 01:57:53 02:02:15 40° 311° (NW) 02:06:42 437.025 FM, 437.400 FM
Saudisat 1A 17 Sep 01:58:44 02:02:43 32° 47° (NE) 02:06:40 436.775 MHz
Oscar 16 17 Sep 02:00:41 02:05:43 47° 99° (E) 02:10:40 437.025 USB, Beacon 2401.1428
Gurwin Techsat 1B 17 Sep 02:10:38 02:12:15 11° 88° (E) 02:13:52 435.225 FM
ITAMSAT 1 17 Sep 02:37:45 02:42:44 43° 99° (E) 02:47:40 435.822 SSB
AO-Echo 17 Sep 02:38:08 02:42:50 51° 100° (E) 02:47:38 ?
Uribyol 2 17 Sep 02:42:41 02:47:47 52° 100° (E) 02:52:52 436.500 FM
JAS-1B 17 Sep 02:44:49 02:50:32 53° 100° (E) 02:56:04 435.800 - 435.900 CW/SSB
TMSAT-1 17 Sep 02:47:51 02:51:39 20° 92° (E) 02:55:26 436.925 FM
RS-15 17 Sep 02:55:58 03:02:11 17° 98° (E) 03:08:19 29.354 - 29.394 USB, Beacon 29.352 USB
Oscar 19 17 Sep 03:01:43 03:06:42 49° 289° (WNW) 03:11:39 437.125 CW, 437.150 USB
AO-27 17 Sep 03:11:48 03:17:03 90° 285° (WNW) 03:22:16 436.795 MHz FM
Saudisat 1A 17 Sep 03:38:22 03:42:15 31° 245° (WSW) 03:46:07 436.775 MHz
KITSAT 1 17 Sep 03:40:17 03:47:25 33° 41° (NE) 03:54:30 435.175 FM
Oscar 16 17 Sep 03:40:45 03:44:44 23° 296° (WNW) 03:48:42 437.025 USB, Beacon 2401.1428
OPAL 17 Sep 03:42:56 03:47:32 34° 65° (ENE) 03:52:11 ?
AO-7 17 Sep 03:45:05 03:50:46 20° 91° (E) 03:56:25 29.400 - 29.500 MHz
Gurwin Techsat 1B 17 Sep 03:47:34 03:52:55 89° 284° (WNW) 03:58:14 435.225 FM
Uosat F 17 Sep 03:48:16 03:49:44 11° 89° (E) 03:51:12 435.120 FM
ISS 17 Sep 04:05:12 04:08:31 77° 144° (SE) 04:11:51 145.800 FM
ITAMSAT 1 17 Sep 04:17:47 04:21:58 25° 296° (WNW) 04:26:08 435.822 SSB
AO-Echo 17 Sep 04:17:55 04:21:15 19° 296° (WNW) 04:24:39 ?
Uribyol 2 17 Sep 04:22:59 04:26:53 22° 297° (WNW) 04:30:47 436.500 FM
TMSAT-1 17 Sep 04:26:43 04:31:54 54° 289° (WNW) 04:37:02 436.925 FM
JAS-1B 17 Sep 04:36:29 04:40:47 22° 301° (WNW) 04:44:57 435.800 - 435.900 CW/SSB
AO-27 17 Sep 04:53:32 04:55:47 13° 302° (WNW) 04:58:03 436.795 MHz FM
JAS-2 17 Sep 05:01:17 05:02:39 11° 88° (E) 05:04:02 435.800 - 435.900 CW/SSB, 435.910 FM
RS-15 17 Sep 05:01:32 05:12:33 77° 119° (ESE) 05:23:27 29.354 - 29.394 USB, Beacon 29.352 USB
OPAL 17 Sep 05:21:46 05:26:22 32° 262° (W) 05:31:02 ?
Uosat F 17 Sep 05:24:06 05:29:08 84° 285° (WNW) 05:34:10 435.120 FM
Gurwin Techsat 1B 17 Sep 05:29:45 05:32:05 13° 302° (WNW) 05:34:25 435.225 FM
KITSAT 1 17 Sep 05:35:27 05:43:29 71° 243° (WSW) 05:51:27 435.175 FM
AO-7 17 Sep 05:36:10 05:44:30 86° 289° (WNW) 05:52:47 29.400 - 29.500 MHz
ISS 17 Sep 05:42:45 05:45:32 24° 343° (NNW) 05:48:19 145.800 FM
STRAND 1 17 Sep 05:57:56 06:02:29 34° 67° (ENE) 06:07:03 ?
JAS-2 17 Sep 06:42:30 06:48:23 77° 103° (ESE) 06:55:02 435.800 - 435.900 CW/SSB, 435.910 FM
Hamsat 17 Sep 06:48:40 06:52:58 87° 283° (WNW) 06:57:11 145.90 MHz
SO-50 17 Sep 06:53:30 06:57:40 29° 45° (NE) 07:01:53 436.795 FM
Uosat F 17 Sep 07:05:33 07:07:07 11° 303° (WNW) 07:08:41 435.120 FM
SO-67 17 Sep 07:07:49 07:10:16 18° 94° (E) 07:12:43 435.3500 MHz FM
RS-15 17 Sep 07:15:59 07:25:56 38° 324° (NW) 07:35:57 29.354 - 29.394 USB, Beacon 29.352 USB
ISS 17 Sep 07:20:49 07:23:06 17° 3° (N) 07:25:22 145.800 FM
AO-7 17 Sep 07:30:24 07:36:10 22° 310° (NW) 07:41:57 29.400 - 29.500 MHz
KITSAT 1 17 Sep 07:34:10 07:37:24 13° 262° (W) 07:40:37 435.175 FM
STRAND 1 17 Sep 07:37:16 07:41:41 29° 264° (W) 07:46:07 ?
MaSat-1 17 Sep 07:58:24 08:01:42 18° 103° (ESE) 08:04:59 437.345 MHz
JAS-2 17 Sep 08:29:10 08:32:59 18° 299° (WNW) 08:37:03 435.800 - 435.900 CW/SSB, 435.910 FM
SO-50 17 Sep 08:33:50 08:38:22 42° 243° (WSW) 08:42:57 436.795 FM
SO-67 17 Sep 08:40:24 08:43:18 25° 290° (WNW) 08:46:10 435.3500 MHz FM
UOSAT-12 17 Sep 08:46:50 08:51:03 31° 46° (NE) 08:55:13 437.025 FM, 437.400 FM
